MST,Max TemperatureF,Mean TemperatureF,Min TemperatureF,Max Dew PointF,MeanDew PointF,Min DewpointF,Max Humidity, Mean Humidity, Min Humidity, Max Sea Level PressureIn, Mean Sea Level PressureIn, Min Sea Level PressureIn, Max VisibilityMiles, Mean VisibilityMiles, Min VisibilityMiles, Max Wind SpeedMPH, Mean Wind SpeedMPH, Max Gust SpeedMPH,PrecipitationIn, CloudCover, Events, WindDirDegrees
2012-11-1,64,50,36,34,26,18,75,46,17,30.10,29.93,29.83,10,10,10,22,8,25,0.00,0,,262
2012-11-2,57,45,32,28,23,19,70,48,26,30.14,29.99,29.84,10,10,10,21,9,26,0.00,1,,314
2012-11-3,58,43,27,27,20,9,78,47,15,30.22,30.14,30.09,10,10,10,18,7,29,0.00,0,,290
2012-11-4,55,44,33,32,23,16,76,52,28,30.27,30.15,30.04,10,10,10,30,13,38,0.00,2,Rain,315
2012-11-5,62,46,29,31,27,25,85,56,26,30.30,30.15,30.04,10,10,9,29,12,35,0.00,0,Rain-Snow,287
2012-11-6,64,50,35,28,25,18,64,41,17,30.21,30.12,30.06,10,10,10,22,9,30,0.00,0,,294
2012-11-7,70,53,35,24,18,13,64,38,11,30.06,29.92,29.80,10,10,10,26,11,32,0.00,0,,243
2012-11-8,52,42,32,29,26,17,75,51,27,29.98,29.85,29.75,10,10,10,17,9,24,0.00,0,Rain,181
2012-11-9,57,43,29,33,28,25,85,57,28,29.77,29.61,29.42,10,10,10,15,7,20,0.00,0,,208
2012-11-10,35,22,9,29,22,6,100,88,75,29.96,29.60,29.39,10,5,0,26,13,35,0.01,7,Fog-Snow,2
2012-11-11,30,18,6,9,4,-2,91,61,31,30.25,30.06,29.79,10,9,2,33,13,43,0.00,2,,292
2012-11-12,45,32,19,6,1,-3,43,29,15,30.35,30.31,30.23,10,10,10,38,12,49,0.00,1,,261
2012-11-13,47,37,26,19,13,-1,63,42,20,30.29,30.23,30.14,10,10,10,29,11,37,0.00,4,,291
2012-11-14,51,38,24,30,19,12,75,48,21,30.27,30.17,30.09,10,10,10,22,8,28,0.00,3,,250
2012-11-15,43,35,27,30,26,23,92,71,49,30.42,30.33,30.15,10,8,2,21,10,26,0.01,4,Snow,266
2012-11-16,55,39,23,24,20,11,92,56,19,30.29,30.15,29.99,10,10,6,17,7,21,0.00,1,,223
2012-11-17,57,45,33,29,27,23,70,50,30,30.12,30.02,29.96,10,10,10,17,7,28,0.00,3,,248
2012-11-18,56,43,29,29,25,21,78,52,26,30.04,29.97,29.89,10,10,10,31,13,39,0.00,0,,264
2012-11-19,55,42,29,27,23,20,69,48,26,30.24,30.16,30.01,10,10,10,22,11,28,0.00,0,,254
2012-11-20,61,44,26,22,18,14,75,46,16,30.25,30.14,29.99,10,10,10,18,9,23,0.00,0,,240
2012-11-21,66,50,33,17,11,2,44,26,7,30.04,29.88,29.77,10,10,10,23,9,29,0.00,0,,241
2012-11-22,46,34,22,25,11,5,54,37,20,30.50,30.13,29.81,10,10,10,33,15,43,0.00,0,,323
2012-11-23,48,31,13,12,9,6,73,48,23,30.57,30.43,30.11,10,10,10,17,9,22,0.00,0,,230
2012-11-24,60,53,46,11,7,1,21,16,10,30.07,29.92,29.82,10,10,10,37,23,48,0.00,1,,269
2012-11-25,59,44,28,28,17,3,92,51,10,30.02,29.87,29.64,10,7,0,29,12,40,0.00,4,Fog,329
2012-11-26,30,26,21,28,22,18,100,82,63,30.39,30.22,29.96,10,8,2,22,11,26,T,6,Snow,339
2012-11-27,57,37,16,16,2,-8,84,46,7,30.25,30.16,30.04,10,10,7,36,16,44,0.00,0,,270
2012-11-28,51,39,27,10,6,0,38,26,14,30.18,30.09,30.01,10,10,10,22,10,26,0.00,0,,250
2012-11-29,57,42,27,21,18,9,42,32,21,30.01,29.94,29.87,10,10,10,35,16,44,0.00,0,,265
2012-11-30,56,44,32,20,18,17,48,36,24,30.00,29.88,29.77,10,10,10,16,8,20,0.00,0,,228